[[{"header":{"parameterUnit":"m.s-1","parameterCategory":1,"la1":30.2991,"la2":30.254,"lo1":-89.0895,"lo2":-89.0444,"dy":0.0017,"dx":0.0017,"nx":28,"ny":28,"refTime":"2024-11-28T09:00:00:Z","depth":0,"parameterNumber":2,"parameterNumberName":"U-component_of_WINDS"},"data":[0,0,0,0,0,0,0,0,0,0,0,0,0,0,0,0,0,0,0,0,0,0,0,0,0,0,0,0,0,0,0,0,0,0,0,0,0,0,0,0,0,0,0,0,0,0,0,0,0,0,0,0,0,0,0,0,0,0,2.5976,2.5977,0,2.6081,2.6082,2.6083,2.6079,2.6078,2.6076,2.6075,2.6186,2.619,2.6194,0,0,0,0,0,0,0,0,0,0,0,0,0,2.5777,2.5781,2.5976,2.5977,2.5979,2.6081,2.6082,2.6083,2.608,2.6078,2.6076,2.6074,2.6184,2.619,2.6195,0,0,0,0,0,0,0,0,0,0,0,0,0,2.5871,2.5782,2.5976,2.5989,2.5991,2.608,2.6082,2.6084,2.608,2.6078,2.6076,2.6074,2.6183,2.6189,2.6195,2.6279,0,0,2.6215,2.6218,0,0,0,0,0,0,0,0,2.5865,2.5878,2.5986,2.5988,2.5991,2.6065,2.6052,2.615,2.6081,2.6046,2.6075,2.6072,2.6148,2.6157,2.6181,2.6285,2.6289,2.6216,2.622,2.6222,2.6224,0,0,0,0,0,0,0,2.5859,2.5874,2.6018,2.5987,2.5991,2.5991,2.6002,2.6071,2.6108,2.6049,2.6049,2.6061,2.6149,2.6175,2.6184,2.6291,2.6216,2.6221,2.6225,2.6228,2.647,2.6472,0,0,0,0,0,0,2.5849,2.5868,2.6014,2.6021,2.5921,2.5996,2.6008,2.6043,2.6107,2.6115,2.6063,2.6061,2.6165,2.6176,2.6188,2.6291,2.6222,2.6228,2.6232,2.6467,2.6471,2.6473,0,0,0,0,0,0,2.5845,2.5862,2.601,2.5945,2.5963,2.6002,2.6041,2.6047,2.6073,2.6118,2.6125,2.6083,2.6164,2.6179,2.6257,2.6295,2.6231,2.6237,2.6464,2.6468,2.6472,2.6498,0,0,0,0,0,0,2.5839,2.5861,2.5892,2.5945,2.5967,2.6076,2.6044,2.605,2.6084,2.6082,2.6139,2.6146,2.6163,2.6247,2.6263,2.6303,2.6242,2.6461,2.6466,2.6471,2.6494,2.6502,2.6509,0,0,0,0,0,2.5832,2.5896,2.5893,2.5911,2.6007,2.6078,2.6091,2.6108,2.6087,2.6119,2.6148,2.6144,2.6288,2.6255,2.6273,2.6315,2.6459,2.6465,2.647,2.6491,2.6501,2.6509,0,0,0,0,0,0,2.5847,2.5903,2.5901,2.5983,2.6026,2.6077,2.6119,2.6118,2.6169,2.6165,2.6186,2.6199,2.6277,2.6304,2.6266,2.6401,2.6371,2.6381,2.638,2.639,2.6398,2.639,2.6248,0,0,0,0,0,2.5859,2.5912,2.5958,2.6027,2.6048,2.608,2.6112,2.6122,2.6167,2.6185,2.622,2.6265,2.6321,2.6357,2.641,2.6498,2.6511,2.6536,2.6544,2.655,2.6558,2.6608,2.662,2.6492,2.6492,2.6492,0,0,2.5886,2.5923,2.5955,2.6031,2.6065,2.612,2.6095,2.6154,2.6195,2.6195,2.627,2.6297,2.6349,2.6433,2.6471,2.6458,2.6596,2.6557,2.6562,2.6567,2.6615,2.6627,2.6637,2.6496,2.6495,2.6495,0,0,2.5964,2.5996,2.6057,2.6092,2.6144,2.6165,2.6179,2.6231,2.6249,2.6325,2.6326,2.6376,2.6471,2.6508,2.654,2.6632,2.6631,2.6649,2.669,2.6738,2.6748,2.6757,2.6791,2.6803,2.6657,2.6658,2.6658,0,2.5991,2.6072,2.6089,2.6149,2.6182,2.6183,2.6246,2.6279,2.6346,2.637,2.6354,2.6473,2.6509,2.6601,2.6624,2.6649,2.6668,2.6643,2.6745,2.6754,2.6763,2.6796,2.6808,2.6659,2.6659,2.6659,2.6659,0,2.6104,2.6161,2.6204,2.6268,2.6306,2.6367,2.6394,2.6432,2.6439,2.6462,2.654,2.6582,2.6645,2.6668,2.6675,2.6762,2.6752,2.674,2.6711,2.6777,2.6808,2.6821,2.6662,2.6662,2.6661,2.6661,0,0,2.6193,2.6265,2.6281,2.6311,2.6368,2.6413,2.6475,2.6535,2.6567,2.6614,2.6667,2.6748,2.6737,2.6773,2.6785,2.6827,2.6899,2.6811,2.6812,2.6826,2.6999,2.7008,2.7022,2.6899,2.6901,2.6903,2.6995,0,2.6276,2.6384,2.6402,2.6497,2.6551,2.6553,2.6607,2.6649,2.6673,2.6723,2.6749,2.6806,2.6788,2.681,2.6851,2.6882,2.6934,2.6875,2.695,2.6952,2.6937,2.7038,2.7048,2.7132,2.7007,2.7009,2.7011,0,2.6388,2.6437,2.6537,2.6589,2.6612,2.666,2.6717,2.6765,2.6813,2.6828,2.6868,2.6875,2.6941,2.6908,2.7,2.696,2.6991,2.7011,2.7015,2.7023,2.6986,2.705,2.716,2.7172,2.703,2.7028,2.7027,0,2.6443,2.6534,2.6607,2.6632,2.6694,2.6727,2.6755,2.6801,2.6837,2.6887,2.6911,2.6969,2.7001,2.7046,2.707,2.7044,2.7161,2.713,2.7176,2.7175,2.72,2.7198,2.7317,2.722,2.722,2.7219,2.7219,0,2.6535,2.6597,2.6633,2.6677,2.6747,2.6767,2.6836,2.6863,2.6904,2.6955,2.6961,2.7009,2.7037,2.709,2.7109,2.7182,2.7197,2.7211,2.7216,2.7211,2.7209,2.7232,2.7227,2.7223,2.7222,2.7221,2.7221,0,2.6608,2.6635,2.6714,2.6766,2.6781,2.683,2.6875,2.6919,2.6943,2.7007,2.7024,2.7062,2.7124,2.7152,2.7229,2.7242,2.7326,2.7326,2.7309,2.7311,2.7356,2.7351,2.7494,2.7514,2.7403,2.7404,2.7405,0,2.6665,2.6713,2.677,2.6804,2.6832,2.6887,2.6923,2.6946,2.6984,2.7043,2.7081,2.7143,2.7194,2.7294,2.7329,2.7388,2.739,2.7436,2.7399,2.7393,2.7392,2.7389,2.7394,2.7443,2.7444,2.7445,2.7446,0,2.6763,2.6774,2.6826,2.6883,2.6926,2.6971,2.7016,2.7044,2.7074,2.7117,2.718,2.722,2.7298,2.7361,2.7422,2.7452,2.7455,2.7457,2.7471,2.7467,2.7455,2.7463,2.7328,2.7454,2.7453,2.7452,2.7452,2.7452,2.6831,2.6873,2.6921,2.6978,2.7015,2.7057,2.7101,2.713,2.7183,2.7248,2.7259,2.7327,2.7376,2.7459,2.7491,2.7546,2.7535,2.7555,2.756,2.7565,2.7568,2.7446,2.7557,2.7557,2.7557,2.7557,2.7557,0,2.693,2.696,2.7013,2.7076,2.7122,2.7119,2.7169,2.7208,2.7267,2.7313,2.7363,2.7436,2.7497,2.7537,2.7599,2.7635,2.7638,2.7651,2.7649,2.7656,2.7574,2.7556,2.7648,2.7648,2.7648,2.7648,2.7648,2.7648,2.6987,2.7059,2.7076,2.7167,2.7198,2.7264,2.7293,2.7333,2.7369,2.745,2.7501,2.7526,2.757,2.7635,2.7692,2.7702,2.7725,2.7739,2.7749,2.7671,2.7662,2.7653,2.7636,2.7743,2.7743,2.7827,2.7828,2.7828]},{"header":{"parameterUnit":"m.s-1","parameterCategory":1,"la1":30.2991,"la2":30.254,"lo1":-89.0895,"lo2":-89.0444,"dy":0.0017,"dx":0.0017,"nx":28,"ny":28,"refTime":"2024-11-28T09:00:00:Z","depth":0,"parameterNumber":3,"parameterNumberName":"V-component_of_WINDS"},"data":[0,0,0,0,0,0,0,0,0,0,0,0,0,0,0,0,0,0,0,0,0,0,0,0,0,0,0,0,0,0,0,0,0,0,0,0,0,0,0,0,0,0,0,0,0,0,0,0,0,0,0,0,0,0,0,0,0,0,3.1916,3.1917,0,3.2018,3.202,3.2021,3.2008,3.2007,3.2005,3.2004,3.2108,3.2112,3.2117,0,0,0,0,0,0,0,0,0,0,0,0,0,3.171,3.1713,3.1916,3.1917,3.1918,3.2018,3.202,3.2021,3.2009,3.2007,3.2005,3.2003,3.2107,3.2112,3.2117,0,0,0,0,0,0,0,0,0,0,0,0,0,3.1804,3.1715,3.1916,3.1924,3.1926,3.2018,3.202,3.2021,3.2009,3.2007,3.2004,3.2002,3.2105,3.2111,3.2118,3.2207,0,0,3.2138,3.214,0,0,0,0,0,0,0,0,3.1799,3.1812,3.1922,3.1924,3.1926,3.1998,3.1985,3.2084,3.201,3.1978,3.2003,3.2001,3.2074,3.2082,3.2107,3.2212,3.2217,3.2138,3.2142,3.2145,3.2147,0,0,0,0,0,0,0,3.1792,3.1807,3.1956,3.1923,3.1926,3.1923,3.1934,3.2004,3.2038,3.198,3.198,3.1992,3.2074,3.2101,3.211,3.2218,3.2138,3.2144,3.2148,3.215,3.2403,3.2406,0,0,0,0,0,0,3.1784,3.1802,3.1953,3.1959,3.1855,3.1929,3.1941,3.1977,3.2037,3.2044,3.1994,3.1991,3.2091,3.2102,3.2113,3.2223,3.2145,3.2151,3.2155,3.2401,3.2404,3.2407,0,0,0,0,0,0,3.1779,3.1797,3.1949,3.1881,3.19,3.1935,3.1976,3.1981,3.2007,3.2048,3.2054,3.2015,3.209,3.2104,3.2184,3.2227,3.2154,3.216,3.2397,3.2402,3.2406,3.2443,0,0,0,0,0,0,3.1773,3.1796,3.183,3.1882,3.1903,3.2019,3.1979,3.1985,3.2019,3.2016,3.2069,3.2075,3.2089,3.2175,3.2191,3.2234,3.2165,3.2394,3.2399,3.2404,3.2439,3.2448,3.2457,0,0,0,0,0,3.1766,3.1836,3.1832,3.185,3.1947,3.2021,3.2034,3.2048,3.2022,3.2057,3.2083,3.2074,3.2219,3.2183,3.2201,3.2247,3.2391,3.2398,3.2404,3.2435,3.2447,3.2457,0,0,0,0,0,0,3.1789,3.1843,3.1839,3.1928,3.197,3.2019,3.2064,3.206,3.211,3.2105,3.212,3.2132,3.2213,3.2238,3.2197,3.2338,3.2302,3.2312,3.2319,3.2331,3.2339,3.2333,3.217,0,0,0,0,0,3.1804,3.186,3.1904,3.1979,3.2,3.2028,3.2061,3.2068,3.2112,3.213,3.2162,3.2205,3.226,3.2296,3.235,3.2441,3.2454,3.2482,3.2491,3.2498,3.2508,3.2559,3.2573,3.2428,3.2428,3.2428,0,0,3.1837,3.1873,3.1907,3.1984,3.2018,3.2075,3.2043,3.2105,3.2148,3.2139,3.2218,3.2242,3.2291,3.2378,3.2418,3.2401,3.255,3.2507,3.2512,3.2517,3.2567,3.2581,3.2593,3.2432,3.2432,3.2431,0,0,3.1926,3.1958,3.2025,3.2059,3.211,3.2128,3.2144,3.2194,3.221,3.2289,3.2284,3.2335,3.243,3.2465,3.2496,3.2598,3.2592,3.2615,3.2663,3.2714,3.2725,3.2735,3.2773,3.2786,3.2624,3.2624,3.2624,0,3.196,3.2046,3.2059,3.2122,3.2156,3.2151,3.2218,3.2251,3.2317,3.2341,3.232,3.244,3.2473,3.2569,3.2594,3.2618,3.2637,3.261,3.2722,3.2733,3.2742,3.2779,3.2793,3.2626,3.2626,3.2626,3.2626,0,3.2086,3.2146,3.2193,3.2258,3.2297,3.2362,3.2385,3.2423,3.2427,3.2447,3.2528,3.2566,3.2628,3.2651,3.2655,3.2748,3.2736,3.2719,3.2683,3.2759,3.2793,3.2807,3.263,3.2629,3.2628,3.2628,0,0,3.2193,3.2264,3.2281,3.2311,3.2367,3.2414,3.2478,3.2539,3.2572,3.2617,3.2672,3.2753,3.2738,3.2772,3.278,3.2824,3.2904,3.2802,3.2803,3.2821,3.301,3.3024,3.304,3.29,3.2902,3.2904,3.3007,0,3.2289,3.2404,3.2417,3.252,3.2576,3.2571,3.2628,3.2668,3.2689,3.274,3.2762,3.282,3.2795,3.2816,3.2859,3.2885,3.2943,3.2878,3.2952,3.2955,3.2942,3.3058,3.3072,3.3167,3.302,3.3022,3.3024,0,3.2416,3.2466,3.2574,3.2623,3.2647,3.2698,3.2755,3.2803,3.2849,3.2861,3.29,3.2902,3.2969,3.293,3.3023,3.2978,3.3009,3.3026,3.303,3.3039,3.2995,3.3071,3.3197,3.3212,3.3045,3.3044,3.3042,0,3.2485,3.2579,3.2656,3.2681,3.274,3.2776,3.2802,3.2845,3.2881,3.2931,3.2954,3.301,3.3042,3.3085,3.3103,3.3072,3.3195,3.3157,3.3208,3.3208,3.3235,3.3234,3.337,3.3252,3.3252,3.3252,3.3252,0,3.2591,3.2658,3.2688,3.2736,3.281,3.2825,3.2899,3.2923,3.2962,3.3015,3.3013,3.3063,3.3082,3.3134,3.3148,3.3224,3.3237,3.3249,3.3253,3.3251,3.3249,3.3272,3.3267,3.3256,3.3255,3.3254,3.3253,0,3.2681,3.2704,3.2788,3.2837,3.2851,3.2904,3.2946,3.2992,3.3012,3.3079,3.3095,3.3127,3.3189,3.321,3.3284,3.3293,3.3382,3.3379,3.3367,3.3368,3.3418,3.3414,3.3575,3.3598,3.3464,3.3465,3.3466,0,3.2749,3.28,3.2855,3.289,3.2918,3.2974,3.3011,3.3027,3.3065,3.3122,3.3162,3.3223,3.3273,3.3372,3.3401,3.3458,3.3457,3.351,3.3466,3.3463,3.346,3.3458,3.3463,3.3519,3.352,3.3521,3.3522,0,3.2866,3.2875,3.2928,3.2985,3.3029,3.3075,3.3119,3.3148,3.317,3.3213,3.3277,3.3316,3.3392,3.3453,3.3512,3.3539,3.3535,3.3536,3.3551,3.355,3.3542,3.3548,3.3391,3.3532,3.3531,3.353,3.353,3.3529,3.2948,3.2994,3.304,3.3099,3.3134,3.3176,3.3222,3.3248,3.3301,3.3365,3.3371,3.344,3.3485,3.3563,3.3592,3.3646,3.3632,3.3653,3.3659,3.3665,3.3669,3.3532,3.3657,3.3657,3.3656,3.3656,3.3656,0,3.3066,3.3096,3.315,3.3212,3.3259,3.3251,3.33,3.334,3.34,3.3442,3.3492,3.3565,3.3625,3.3659,3.3718,3.3755,3.3755,3.377,3.3768,3.3775,3.3678,3.366,3.3769,3.3769,3.3769,3.3769,3.3769,3.3769,3.3133,3.3211,3.3226,3.3321,3.335,3.3418,3.3446,3.3485,3.3519,3.3601,3.365,3.3672,3.3712,3.3774,3.3828,3.3837,3.3859,3.3877,3.3884,3.3793,3.3782,3.377,3.3754,3.3881,3.3881,3.3977,3.3977,3.3978]}]]